Total_Precipitation_Accumulation
0.41 0.16 0.11 0.09 0.09 0.14 0.15 0.17 0.20 0.19 0.17 0.15 0.14 0.13 0.12 0.13 0.13 0.12 0.10 0.11 0.17 0.27 0.35 0.39 0.41 0.46 0.48 0.46 0.39 0.30 0.24 0.20 0.18 0.18 0.20 0.23 0.32 0.41 0.42 0.38 0.49 0.53 0.35
0.33 0.15 0.11 0.09 0.08 0.11 0.15 0.19 0.21 0.20 0.19 0.17 0.14 0.12 0.13 0.13 0.13 0.16 0.14 0.15 0.22 0.28 0.30 0.33 0.35 0.37 0.35 0.32 0.26 0.20 0.16 0.18 0.24 0.31 0.37 0.43 0.57 0.66 0.68 0.59 0.72 0.71 0.33
0.22 0.12 0.08 0.08 0.09 0.10 0.13 0.17 0.21 0.20 0.19 0.17 0.18 0.16 0.16 0.15 0.15 0.17 0.17 0.20 0.26 0.30 0.27 0.27 0.28 0.27 0.24 0.19 0.16 0.16 0.18 0.25 0.41 0.57 0.89 1.07 0.98 0.85 0.73 0.64 0.58 0.47 0.32
0.20 0.15 0.09 0.08 0.09 0.09 0.11 0.14 0.19 0.21 0.23 0.24 0.25 0.20 0.18 0.18 0.18 0.18 0.18 0.20 0.24 0.26 0.24 0.22 0.21 0.18 0.16 0.14 0.14 0.17 0.22 0.32 0.59 0.90 1.48 1.44 1.46 1.28 0.89 0.68 0.57 0.48 0.44
0.22 0.21 0.16 0.13 0.12 0.11 0.10 0.14 0.21 0.25 0.26 0.28 0.28 0.25 0.20 0.18 0.18 0.20 0.25 0.28 0.29 0.29 0.29 0.28 0.23 0.17 0.14 0.15 0.16 0.21 0.28 0.41 0.71 1.09 1.61 1.90 2.12 1.85 1.13 0.80 0.66 0.60 0.59
0.21 0.20 0.17 0.19 0.16 0.14 0.15 0.16 0.23 0.30 0.30 0.29 0.28 0.28 0.26 0.22 0.21 0.25 0.33 0.36 0.35 0.33 0.37 0.42 0.35 0.26 0.19 0.18 0.19 0.24 0.35 0.55 0.74 1.07 1.73 2.18 2.19 1.88 1.24 0.94 0.77 0.77 0.79
0.29 0.26 0.25 0.28 0.26 0.24 0.22 0.25 0.31 0.35 0.37 0.38 0.35 0.34 0.34 0.28 0.25 0.30 0.39 0.42 0.42 0.40 0.40 0.37 0.31 0.25 0.22 0.22 0.24 0.28 0.39 0.60 0.75 1.20 1.71 2.13 2.10 1.81 1.39 1.14 1.00 0.91 0.86
0.43 0.35 0.34 0.35 0.39 0.41 0.39 0.40 0.41 0.39 0.40 0.41 0.41 0.42 0.39 0.31 0.29 0.32 0.40 0.47 0.54 0.50 0.43 0.36 0.29 0.23 0.22 0.22 0.24 0.28 0.41 0.55 0.60 1.03 1.51 1.76 1.68 1.53 1.45 1.29 1.18 1.01 0.91
0.71 0.59 0.49 0.46 0.47 0.49 0.49 0.49 0.50 0.48 0.46 0.44 0.43 0.42 0.41 0.38 0.33 0.38 0.46 0.51 0.51 0.45 0.40 0.36 0.31 0.27 0.23 0.21 0.23 0.29 0.40 0.55 0.67 0.94 1.26 1.60 1.50 1.55 1.62 1.40 1.19 1.09 1.03
1.25 1.48 1.01 0.69 0.61 0.55 0.52 0.57 0.61 0.63 0.61 0.54 0.48 0.43 0.42 0.43 0.44 0.49 0.52 0.53 0.50 0.43 0.38 0.37 0.34 0.30 0.26 0.24 0.27 0.32 0.41 0.45 0.48 0.81 1.25 1.44 1.47 1.66 1.89 1.73 1.44 1.24 1.12
1.56 1.82 1.29 0.97 0.86 0.81 0.79 0.72 0.76 0.78 0.75 0.69 0.63 0.58 0.58 0.66 0.84 0.88 0.70 0.71 0.59 0.50 0.46 0.44 0.40 0.36 0.34 0.32 0.37 0.42 0.40 0.40 0.69 1.01 1.29 1.47 1.62 1.86 2.02 1.92 1.64 1.39 1.24
1.74 1.58 1.53 1.45 1.23 1.10 1.08 1.16 1.13 1.01 0.98 0.90 0.99 0.85 0.91 1.27 1.38 1.19 1.14 1.01 0.84 0.70 0.62 0.60 0.61 0.54 0.46 0.45 0.57 0.57 0.49 0.58 0.84 1.25 1.46 1.51 1.66 1.97 2.14 1.97 1.74 1.62 1.49
2.45 1.96 1.75 1.66 1.55 1.42 1.52 1.65 1.67 1.61 1.53 1.37 1.41 1.28 1.36 1.49 1.43 1.43 1.48 1.32 1.22 1.08 1.07 1.08 0.91 0.73 0.68 0.75 0.79 0.77 0.76 0.82 0.97 1.25 1.47 1.59 1.74 2.00 2.19 2.07 1.82 1.77 1.74
2.71 2.52 2.02 1.91 1.95 2.07 2.14 2.04 1.96 1.98 1.94 1.79 1.81 1.65 1.73 1.84 1.86 1.77 1.86 1.76 1.77 1.65 1.64 1.48 1.34 1.16 1.04 0.92 0.90 0.92 0.97 0.99 1.06 1.27 1.63 1.70 1.70 1.93 2.20 2.23 2.07 1.97 1.94
2.64 2.44 2.20 2.25 2.31 2.35 2.33 2.38 2.25 2.20 2.33 2.32 2.33 2.21 2.20 2.13 2.04 2.02 2.01 2.05 1.96 2.04 2.05 1.94 1.68 1.49 1.35 1.17 1.02 1.07 1.18 1.17 1.29 1.42 1.68 1.73 1.59 1.76 2.14 2.43 2.45 2.46 2.40
2.49 2.53 2.47 2.60 2.45 2.37 2.48 2.66 2.62 2.45 2.66 2.85 3.01 2.90 2.63 2.50 2.42 2.40 2.48 2.46 2.21 2.20 2.28 2.30 2.13 1.90 1.62 1.41 1.24 1.20 1.20 1.21 1.34 1.52 1.73 1.87 1.80 1.72 2.06 2.49 2.68 2.78 2.75
2.61 2.59 2.69 2.57 2.70 2.80 2.90 2.87 2.80 2.79 2.88 3.02 3.16 3.22 2.92 2.66 2.70 2.67 2.82 2.80 2.47 2.36 2.48 2.58 2.52 2.34 1.94 1.65 1.54 1.50 1.44 1.48 1.49 1.59 1.78 1.92 1.93 1.88 1.99 2.13 2.32 2.49 2.63
2.63 2.94 2.94 2.60 2.87 3.01 3.05 3.03 2.89 2.94 3.15 3.29 3.28 3.35 3.16 2.82 2.73 2.82 2.75 2.59 2.51 2.57 2.80 2.99 2.90 2.78 2.49 2.22 2.04 1.79 1.63 1.64 1.61 1.77 1.83 1.90 2.18 2.12 2.04 1.85 1.92 2.11 2.35
2.88 3.30 3.06 2.70 2.85 2.98 3.14 3.27 3.07 3.09 3.39 3.58 3.62 3.46 3.13 2.87 2.87 3.01 3.02 2.97 2.90 2.92 2.99 2.91 3.05 2.88 2.90 2.70 2.26 2.02 1.82 1.77 1.84 1.89 1.95 1.97 2.09 2.21 2.17 1.95 1.86 1.94 2.06
3.18 3.69 3.29 2.83 2.88 3.17 3.22 3.16 3.18 3.29 3.56 3.82 3.76 3.52 3.29 3.24 3.20 3.28 3.25 3.31 3.35 3.39 3.22 3.14 3.13 2.94 2.81 2.70 2.34 2.17 2.03 1.90 1.86 1.84 1.78 1.82 1.91 1.88 1.96 1.96 1.99 1.87 1.92
3.15 3.44 3.37 3.16 3.21 3.35 3.40 3.21 3.38 3.62 3.90 4.15 4.08 3.97 3.89 3.81 3.76 3.76 3.77 3.76 3.63 3.55 3.39 3.20 3.06 2.96 2.75 2.54 2.47 2.18 1.87 1.64 1.58 1.54 1.58 1.66 1.65 1.63 1.72 1.89 1.99 1.95 1.83
2.90 3.05 3.30 3.39 3.43 3.27 3.57 3.80 4.02 4.33 4.48 4.76 5.00 5.07 4.92 4.66 4.44 4.21 4.14 3.95 3.66 3.48 3.35 3.14 2.99 2.85 2.60 2.45 2.41 2.38 2.00 1.71 1.44 1.28 1.36 1.38 1.45 1.57 1.65 1.62 1.66 1.67 1.64
2.76 3.00 3.28 3.57 3.67 3.59 4.00 4.51 4.90 5.18 5.19 5.27 5.31 5.37 5.33 4.90 4.50 4.18 3.89 3.73 3.55 3.36 3.19 3.09 2.97 2.85 2.63 2.46 2.37 2.50 2.36 2.07 1.70 1.51 1.38 1.40 1.47 1.52 1.52 1.47 1.43 1.42 1.46
2.54 2.81 3.06 3.41 3.79 4.08 4.49 4.96 5.52 5.77 5.89 5.81 5.52 5.28 4.96 4.54 4.15 3.71 3.48 3.46 3.30 3.09 2.92 2.70 2.56 2.51 2.45 2.36 2.32 2.21 2.19 2.13 1.98 1.80 1.61 1.61 1.63 1.60 1.54 1.49 1.53 1.58 1.58
2.34 2.59 2.88 3.19 3.60 4.25 5.01 5.53 5.89 6.16 6.14 5.74 5.25 4.66 4.22 3.88 3.57 3.30 3.11 3.11 3.01 2.76 2.53 2.29 2.09 2.01 2.02 2.10 2.12 2.09 2.02 1.97 1.83 1.75 1.68 1.61 1.58 1.57 1.50 1.47 1.51 1.58 1.57
2.12 2.33 2.68 3.08 3.37 3.89 4.61 5.20 5.48 5.70 5.65 5.28 4.66 4.13 3.75 3.36 3.03 2.74 2.47 2.35 2.23 2.07 1.96 1.86 1.73 1.67 1.66 1.78 1.86 1.83 1.82 1.82 1.79 1.79 1.75 1.62 1.60 1.67 1.56 1.43 1.36 1.33 1.34